Skip Page Navigation
NASA JPL Caltech
NASA Logo - Jet Propulsion Laboratory + View the NASA Portal
+ Near-Earth Object (NEO) Program
Search JPL
JPL Home Earth Solar System Stars & Galaxies Technology
JPL Solar System Dynamics
BODIES ORBITS EPHEMERIDES TOOLS PHYSICAL DATA DISCOVERY FAQ SITE MAP
JPL Small-Body Database Browser
Search: [ help ]  
6549 Skryabin (1988 PX1)
Classification: Main-belt Asteroid          SPK-ID: 2006549
Ephemeris | Orbit Diagram | Orbital Elements | Physical Parameters | Discovery Circumstances ]

[ hide orbit diagram ]
Orbit Diagram
Note: Make sure you have Java enabled on your browser to see the applet. This applet is provided as a 3D orbit visualization tool. The applet was implemented using 2-body methods, and hence should not be used for determining accurate long-term trajectories (over several years or decades) or planetary encounter circumstances. For accurate long-term ephemerides, please instead use our Horizons system.
Orbit Viewer

Additional Notes: the orbits shown in the applet are color coded. The planets are white lines, and the asteroid/comet is a blue line. The bright white line indicates the portion of the orbit that is above the ecliptic plane, and the darker portion is below the ecliptic plane. Likewise for the asteroid/comet orbit, the light blue indicates the portion above the ecliptic plane, and the dark blue the portion below the ecliptic plane.

Orbit Viewer applet originally written and kindly provided by Osamu Ajiki (AstroArts), and further modified by Ron Baalke (JPL).


Orbital Elements at Epoch 2456400.5 (2013-Apr-18.0) TDB
Reference: JPL 1 (heliocentric ecliptic J2000)
 Element Value Uncertainty (1-sigma)   Units 
e .129639789333399 7.3878e-08  
a 2.348350004977727 1.6983e-08 AU
q 2.043910405051328 1.733e-07 AU
i 7.055745803544339 7.8458e-06 deg
node 159.6532967209335 4.7409e-05 deg
peri 177.9131486412119 5.3571e-05 deg
M 310.2092245007952 2.8302e-05 deg
tp 2456582.297980903019
(2013-Oct-16.79798090)
0.00010437 JED
period 1314.445747609052
3.60
1.4259e-05
3.904e-08
d
yr
n .2738796946582482 2.971e-09 deg/d
Q 2.652789604904125 1.9185e-08 AU
  Orbit Determination Parameters
   # obs. used (total)      1038  
   data-arc span      9017 days (24.69 yr)  
   first obs. used      1988-08-13  
   last obs. used      2013-04-21  
   planetary ephem.      DE405  
   SB-pert. ephem.      SB405-CPV-2  
   condition code      0  
   fit RMS      .52197  
   data source      ORB  
   producer      Otto Matic  
   solution date      2013-Apr-29 13:22:18  

Additional Information
 Earth MOID = 1.03436 AU 
 T_jup = 3.538 
[ show covariance matrix ]

Ephemeris | Orbit Diagram | Orbital Elements | Physical Parameters | Discovery Circumstances ]

Physical Parameter Table
Parameter Symbol Value Units Sigma Reference Notes
absolute magnitude H 14.1 mag n/a PDS3 (MPC 28115)  

6549 Skryabin (1988 PX1)          Discovered 1988-Aug-13 by Elst, E. W. at Haute Provence
Reference: DISCOVERY.DBLast Updated: 2003-08-29

Alternate Designations
 1988 PX1 = 1992 YH5 
Ephemeris | Orbit Diagram | Orbital Elements | Physical Parameters | Discovery Circumstances ]
ABOUT SSD CREDITS/AWARDS PRIVACY/COPYRIGHT GLOSSARY LINKS
FirstGov 2013-Jun-20 04:39 UT
(server date/time)  
NASA Home Page
Site Manager:   Donald K. Yeomans
Webmaster  Alan B. Chamberlin